Satellite-Ground Cal/Val Region Overpasses Predictions

Prediction of Satellite NPP Overpassing Cal/Val Region: PacNW

Region Location: (Latitude: 10.00, Longitude: 139.50) to (Latitude: 22.70, Longitude: 165.60).

Table of predicted overpasses for the next 14.0 days since TLE Epoch: 5/22/2022
Interval Starting Time Starting Location Ending Time Ending Location
1 05/22/2022 02:39:16 ( 10.99, 159.80) 05/22/2022 02:42:35 ( 22.67, 157.01)
2 05/22/2022 15:10:51 ( 22.69, 157.26) 05/22/2022 15:14:27 ( 10.01, 154.24)
3 05/23/2022 02:19:56 ( 10.01, 164.78) 05/23/2022 02:23:32 ( 22.69, 161.76)
4 05/23/2022 14:51:49 ( 22.67, 162.02) 05/23/2022 14:55:24 ( 10.05, 159.01)
5 05/24/2022 03:42:24 ( 10.05, 144.16) 05/24/2022 03:45:59 ( 22.67, 141.16)
6 05/24/2022 14:34:08 ( 17.83, 165.59) 05/24/2022 14:36:21 ( 10.02, 163.77)
7 05/24/2022 16:14:15 ( 22.69, 141.41) 05/24/2022 16:16:29 ( 14.83, 139.51)
8 05/25/2022 03:23:20 ( 10.02, 148.93) 05/25/2022 03:26:56 ( 22.70, 145.91)
9 05/25/2022 15:55:13 ( 22.66, 146.17) 05/25/2022 15:58:48 ( 10.04, 143.16)
10 05/26/2022 03:04:18 ( 10.05, 153.69) 05/26/2022 03:07:53 ( 22.67, 150.68)
11 05/26/2022 15:36:09 ( 22.69, 150.94) 05/26/2022 15:39:45 ( 10.01, 147.92)
12 05/27/2022 02:45:14 ( 10.02, 158.46) 05/27/2022 02:48:50 ( 22.70, 155.44)
13 05/27/2022 15:17:07 ( 22.66, 155.69) 05/27/2022 15:20:42 ( 10.04, 152.69)
14 05/28/2022 02:26:12 ( 10.05, 163.21) 05/28/2022 02:29:47 ( 22.67, 160.21)
15 05/28/2022 14:58:04 ( 22.69, 160.46) 05/28/2022 15:01:40 ( 10.01, 157.44)
16 05/29/2022 02:10:01 ( 20.18, 165.59) 05/29/2022 02:10:43 ( 22.64, 164.98)
17 05/29/2022 03:48:38 ( 10.03, 142.61) 05/29/2022 03:52:13 ( 22.65, 139.60)
18 05/29/2022 14:39:01 ( 22.66, 165.22) 05/29/2022 14:42:36 ( 10.04, 162.21)
19 05/29/2022 16:20:31 ( 22.65, 139.84) 05/29/2022 16:20:54 ( 21.30, 139.50)
20 05/30/2022 03:29:35 ( 10.00, 147.37) 05/30/2022 03:33:11 ( 22.69, 144.36)
21 05/30/2022 16:01:28 ( 22.67, 144.61) 05/30/2022 16:05:03 ( 10.05, 141.60)
22 05/31/2022 03:10:32 ( 10.04, 152.13) 05/31/2022 03:14:07 ( 22.66, 149.13)
23 05/31/2022 15:42:24 ( 22.70, 149.38) 05/31/2022 15:46:00 ( 10.02, 146.36)
24 06/01/2022 02:51:29 ( 10.01, 156.90) 06/01/2022 02:55:05 ( 22.70, 153.88)
25 06/01/2022 15:23:22 ( 22.66, 154.13) 06/01/2022 15:26:57 ( 10.04, 151.13)
26 06/02/2022 02:32:26 ( 10.05, 161.65) 06/02/2022 02:36:01 ( 22.67, 158.65)
27 06/02/2022 15:04:18 ( 22.69, 158.90) 06/02/2022 15:07:54 ( 10.01, 155.88)
28 06/03/2022 02:14:24 ( 13.61, 165.59) 06/03/2022 02:16:58 ( 22.65, 163.42)
29 06/03/2022 03:54:53 ( 10.04, 141.04) 06/03/2022 03:56:45 ( 16.62, 139.51)
30 06/03/2022 14:45:16 ( 22.65, 163.65) 06/03/2022 14:48:51 ( 10.03, 160.65)
31 06/04/2022 03:35:49 ( 10.02, 145.81) 06/04/2022 03:39:24 ( 22.64, 142.81)
32 06/04/2022 14:29:34 ( 10.81, 165.59) 06/04/2022 14:29:47 ( 10.05, 165.42)
